A7ABI OTHH-OERK

Flight info

Callsign A7ABI
Flight time N/A
Altitude 29000
Route DCT DATRI L564 MIGMA/N0289F280 M628 AMBAG M321 NAGUB NAGUB1A
Aircraft SF50/L-SDGRWY/L

Departure

Time 2026-05-07 11:14
Airport Hamad International Airport (OTHH)

Arrival

Time N/A
Airport King Khalid International Airport (OERK)
Time Latitude Longitude Altitude Speed Heading
2026-05-07 10:48 25.28954 51.60637 24 ft 0 kts 248°
2026-05-07 11:07 25.28956 51.60632 24 ft 1 kts 30°
2026-05-07 11:07 25.28958 51.60636 24 ft 0 kts 69°
2026-05-07 11:07 25.28971 51.60674 24 ft 8 kts 69°
2026-05-07 11:08 25.28998 51.60753 26 ft 14 kts 67°
2026-05-07 11:08 25.28993 51.60851 23 ft 16 kts 159°
2026-05-07 11:08 25.28874 51.60906 23 ft 21 kts 156°
2026-05-07 11:08 25.28728 51.60978 23 ft 25 kts 160°
2026-05-07 11:09 25.28551 51.61054 24 ft 29 kts 161°
2026-05-07 11:09 25.28368 51.61046 25 ft 29 kts 226°
2026-05-07 11:09 25.28183 51.61100 24 ft 30 kts 159°
2026-05-07 11:09 25.27988 51.61188 24 ft 31 kts 155°
2026-05-07 11:10 25.27788 51.61271 23 ft 31 kts 161°
2026-05-07 11:10 25.27732 51.61399 23 ft 11 kts 143°
2026-05-07 11:10 25.27661 51.61436 23 ft 12 kts 155°
2026-05-07 11:10 25.27578 51.61472 23 ft 14 kts 154°
2026-05-07 11:11 25.27509 51.61445 23 ft 12 kts 242°
2026-05-07 11:11 25.27475 51.61353 24 ft 14 kts 249°
2026-05-07 11:11 25.27435 51.61245 26 ft 16 kts 246°
2026-05-07 11:11 25.27390 51.61123 25 ft 18 kts 248°
2026-05-07 11:12 25.27359 51.61034 24 ft 20 kts 247°
2026-05-07 11:12 25.27284 51.60833 24 ft 22 kts 247°
2026-05-07 11:12 25.27223 51.60666 24 ft 24 kts 248°
2026-05-07 11:12 25.27159 51.60487 25 ft 26 kts 247°
2026-05-07 11:13 25.27112 51.60360 24 ft 27 kts 251°
2026-05-07 11:13 25.27039 51.60159 23 ft 29 kts 251°
2026-05-07 11:13 25.26977 51.59989 19 ft 17 kts 250°
2026-05-07 11:13 25.26900 51.59943 19 ft 16 kts 158°
2026-05-07 11:14 25.26809 51.59984 19 ft 46 kts 158°
2026-05-07 11:14 25.26276 51.60225 95 ft 109 kts 156°
2026-05-07 11:14 25.25605 51.60525 684 ft 97 kts 155°
2026-05-07 11:14 25.24873 51.60894 697 ft 129 kts 156°
2026-05-07 11:15 25.23974 51.61305 724 ft 152 kts 158°
2026-05-07 11:15 25.22900 51.61785 743 ft 177 kts 158°
2026-05-07 11:15 25.21761 51.62279 759 ft 174 kts 158°
2026-05-07 11:15 25.20652 51.62760 761 ft 173 kts 158°
2026-05-07 11:16 25.19527 51.63245 771 ft 173 kts 158°
2026-05-07 11:16 25.18376 51.63724 768 ft 187 kts 160°
2026-05-07 11:16 25.17060 51.64255 782 ft 214 kts 160°
2026-05-07 11:16 25.15650 51.64824 822 ft 207 kts 160°
2026-05-07 11:17 25.14400 51.65326 1160 ft 179 kts 161°
2026-05-07 11:17 25.13251 51.65783 1527 ft 173 kts 161°
2026-05-07 11:17 25.12122 51.66230 1894 ft 175 kts 161°
2026-05-07 11:17 25.10969 51.66684 2275 ft 175 kts 161°
2026-05-07 11:18 25.09821 51.67130 2644 ft 174 kts 161°
2026-05-07 11:18 25.08692 51.67617 3019 ft 176 kts 151°
2026-05-07 11:18 25.07679 51.68364 3342 ft 181 kts 150°
2026-05-07 11:18 25.06526 51.68934 3493 ft 180 kts 159°
2026-05-07 11:19 25.05366 51.69416 3622 ft 178 kts 158°
2026-05-07 11:19 25.04197 51.69924 3693 ft 188 kts 158°
2026-05-07 11:19 25.02899 51.70491 3703 ft 213 kts 158°
2026-05-07 11:19 25.01448 51.71124 3723 ft 233 kts 158°
2026-05-07 11:20 24.99888 51.71802 3732 ft 245 kts 158°
2026-05-07 11:20 24.98277 51.72502 3738 ft 251 kts 158°
2026-05-07 11:20 24.96654 51.73201 3739 ft 254 kts 158°
2026-05-07 11:20 24.94902 51.73360 3712 ft 260 kts 191°
2026-05-07 11:21 24.93293 51.72443 3699 ft 261 kts 213°
2026-05-07 11:21 24.91853 51.71372 4062 ft 235 kts 213°
2026-05-07 11:21 24.90559 51.70407 4528 ft 212 kts 213°
2026-05-07 11:21 24.80776 51.62983 8565 ft 199 kts 213°
2026-05-07 11:22 24.74754 51.58384 10784 ft 221 kts 214°
2026-05-07 11:22 24.73373 51.57456 10690 ft 244 kts 204°
2026-05-07 11:22 24.71809 51.56932 10915 ft 220 kts 188°
2026-05-07 11:22 24.70366 51.56681 11267 ft 204 kts 188°
2026-05-07 11:23 24.68978 51.56377 11731 ft 204 kts 191°
2026-05-07 11:23 24.67589 51.56040 12224 ft 203 kts 191°
2026-05-07 11:23 24.66229 51.55716 12833 ft 197 kts 191°
2026-05-07 11:23 24.64885 51.55397 13329 ft 198 kts 191°
2026-05-07 11:24 24.63537 51.55081 13800 ft 199 kts 191°
2026-05-07 11:24 24.62188 51.54762 14183 ft 203 kts 191°
2026-05-07 11:24 24.60800 51.54435 14578 ft 205 kts 191°
2026-05-07 11:24 24.59394 51.54103 14978 ft 208 kts 191°
2026-05-07 11:25 24.57971 51.53768 15379 ft 209 kts 191°
2026-05-07 11:25 24.56543 51.53428 15787 ft 211 kts 190°
2026-05-07 11:25 24.55108 51.53091 16200 ft 211 kts 190°
2026-05-07 11:25 24.53673 51.52751 16649 ft 210 kts 190°
2026-05-07 11:26 24.52259 51.52569 17110 ft 198 kts 179°
2026-05-07 11:26 24.50948 51.52708 17640 ft 185 kts 163°
2026-05-07 11:26 24.49729 51.53081 18136 ft 181 kts 174°
2026-05-07 11:26 24.48491 51.52900 18575 ft 180 kts 198°
2026-05-07 11:27 24.47428 51.52188 19027 ft 178 kts 217°
2026-05-07 11:27 24.46427 51.51415 19473 ft 174 kts 209°
2026-05-07 11:27 24.45366 51.50906 19921 ft 169 kts 195°
2026-05-07 11:27 24.44244 51.50632 20379 ft 165 kts 193°
2026-05-07 11:28 24.43133 51.50366 20847 ft 161 kts 194°
2026-05-07 11:28 24.42049 51.50112 21321 ft 156 kts 194°
2026-05-07 11:28 24.41006 51.49862 21796 ft 151 kts 195°
2026-05-07 11:28 24.40001 51.49625 22250 ft 147 kts 195°
2026-05-07 11:29 24.38987 51.49381 22576 ft 151 kts 195°
2026-05-07 11:29 24.37926 51.49130 22850 ft 160 kts 195°
2026-05-07 11:29 24.36795 51.48859 23062 ft 172 kts 195°
2026-05-07 11:29 24.35586 51.48574 23265 ft 183 kts 195°
2026-05-07 11:30 24.34304 51.48270 23456 ft 193 kts 195°
2026-05-07 11:30 24.32975 51.47958 23619 ft 202 kts 195°
2026-05-07 11:30 24.31572 51.47626 23782 ft 210 kts 195°
2026-05-07 11:30 24.30123 51.47287 23944 ft 217 kts 195°
2026-05-07 11:31 24.28619 51.46931 24108 ft 222 kts 195°
2026-05-07 11:31 24.27100 51.46575 24268 ft 224 kts 195°
2026-05-07 11:31 24.25578 51.46216 24425 ft 223 kts 195°
2026-05-07 11:31 24.24067 51.45862 24583 ft 221 kts 195°
2026-05-07 11:32 24.21044 51.45265 24888 ft 222 kts 184°
2026-05-07 11:32 24.19499 51.45303 25047 ft 221 kts 184°
2026-05-07 11:32 24.17967 51.45290 25209 ft 220 kts 185°
2026-05-07 11:33 24.16440 51.45285 25367 ft 219 kts 184°
2026-05-07 11:33 24.14916 51.45289 25527 ft 219 kts 184°
2026-05-07 11:33 24.13415 51.45294 25687 ft 218 kts 184°
2026-05-07 11:33 24.11903 51.45297 25849 ft 217 kts 184°
2026-05-07 11:34 24.10392 51.45302 26013 ft 216 kts 185°
2026-05-07 11:34 24.08888 51.45304 26180 ft 216 kts 185°
2026-05-07 11:34 24.07428 51.45312 26716 ft 203 kts 185°
2026-05-07 11:34 24.06060 51.45317 27263 ft 191 kts 186°
2026-05-07 11:35 24.04773 51.45320 27732 ft 181 kts 187°
2026-05-07 11:35 24.03541 51.45323 28155 ft 174 kts 187°
2026-05-07 11:35 24.02353 51.45325 28569 ft 169 kts 188°
2026-05-07 11:35 24.01172 51.45327 28799 ft 175 kts 188°
2026-05-07 11:36 23.99900 51.45322 28818 ft 191 kts 187°
2026-05-07 11:36 23.98517 51.45327 28815 ft 206 kts 187°
2026-05-07 11:36 23.97038 51.45333 28817 ft 218 kts 186°
2026-05-07 11:36 23.95482 51.45341 28812 ft 228 kts 186°
2026-05-07 11:37 23.93871 51.45344 28808 ft 235 kts 186°
2026-05-07 11:37 23.92214 51.45351 28808 ft 240 kts 186°
2026-05-07 11:37 23.90528 51.45354 28808 ft 245 kts 186°
2026-05-07 11:37 23.88806 51.45360 28805 ft 249 kts 185°
2026-05-07 11:38 23.87054 51.45364 28802 ft 253 kts 185°
2026-05-07 11:38 23.85282 51.45370 28805 ft 256 kts 185°
2026-05-07 11:38 23.83491 51.45375 28805 ft 259 kts 185°
2026-05-07 11:38 23.81678 51.45379 28804 ft 262 kts 185°
2026-05-07 11:39 23.79864 51.45386 28801 ft 265 kts 185°
2026-05-07 11:39 23.78007 51.45391 28801 ft 269 kts 185°
2026-05-07 11:39 23.76125 51.45398 28801 ft 272 kts 185°
2026-05-07 11:39 23.74220 51.45403 28802 ft 275 kts 185°
2026-05-07 11:40 23.72295 51.45410 28797 ft 278 kts 185°
2026-05-07 11:40 23.70355 51.45416 28799 ft 280 kts 185°
2026-05-07 11:40 23.68404 51.45423 28799 ft 281 kts 185°
2026-05-07 11:40 23.66437 51.45428 28799 ft 282 kts 185°
2026-05-07 11:41 23.64468 51.45434 28784 ft 283 kts 185°
2026-05-07 11:41 23.62493 51.45439 28786 ft 284 kts 185°
2026-05-07 11:41 23.60512 51.45445 28786 ft 285 kts 185°
2026-05-07 11:41 23.58553 51.45451 28786 ft 286 kts 184°
2026-05-07 11:42 23.56558 51.45458 28787 ft 286 kts 184°
2026-05-07 11:42 23.54560 51.45463 28785 ft 287 kts 184°
2026-05-07 11:42 23.52564 51.45468 28785 ft 287 kts 184°
2026-05-07 11:42 23.50566 51.45475 28786 ft 287 kts 184°
2026-05-07 11:43 23.48562 51.45481 28785 ft 287 kts 184°
2026-05-07 11:43 23.46562 51.45491 28785 ft 288 kts 184°
2026-05-07 11:43 23.44559 51.45530 28786 ft 288 kts 184°
2026-05-07 11:43 23.42555 51.45569 28786 ft 288 kts 184°
2026-05-07 11:44 23.40574 51.45596 28783 ft 288 kts 184°
2026-05-07 11:44 23.38567 51.45626 28776 ft 288 kts 184°
2026-05-07 11:44 23.36555 51.45657 28776 ft 289 kts 184°
2026-05-07 11:44 23.34541 51.45689 28776 ft 289 kts 184°
2026-05-07 11:45 23.32534 51.45718 28774 ft 289 kts 184°
2026-05-07 11:45 23.30517 51.45749 28774 ft 289 kts 184°
2026-05-07 11:45 23.28504 51.45779 28774 ft 289 kts 184°
2026-05-07 11:45 23.26490 51.45810 28774 ft 289 kts 184°
2026-05-07 11:46 23.24476 51.45840 28775 ft 289 kts 184°
2026-05-07 11:46 23.22462 51.45870 28775 ft 289 kts 184°
2026-05-07 11:46 23.20448 51.45899 28775 ft 289 kts 184°
2026-05-07 11:46 23.18456 51.45923 28775 ft 289 kts 184°
2026-05-07 11:47 23.16442 51.45951 28772 ft 289 kts 184°
2026-05-07 11:47 23.14423 51.45979 28771 ft 290 kts 184°
2026-05-07 11:47 23.12404 51.46006 28771 ft 290 kts 184°
2026-05-07 11:47 23.10388 51.46034 28771 ft 290 kts 184°
2026-05-07 11:48 23.08364 51.46062 28769 ft 290 kts 184°
2026-05-07 11:48 23.06347 51.46089 28769 ft 290 kts 184°
2026-05-07 11:48 23.04330 51.46117 28766 ft 290 kts 184°
2026-05-07 11:48 23.02334 51.46144 28767 ft 290 kts 184°
2026-05-07 11:49 23.00316 51.46169 28766 ft 290 kts 184°
2026-05-07 11:49 22.98298 51.46197 28767 ft 290 kts 184°
2026-05-07 11:49 22.96280 51.46224 28766 ft 290 kts 184°
2026-05-07 11:49 22.94265 51.46231 28764 ft 288 kts 187°
2026-05-07 11:50 22.92306 51.45883 28760 ft 284 kts 199°
2026-05-07 11:50 22.90487 51.45134 28760 ft 280 kts 209°
2026-05-07 11:50 22.88878 51.44041 28760 ft 278 kts 219°
2026-05-07 11:50 22.87476 51.42611 28761 ft 276 kts 230°
2026-05-07 11:51 22.86361 51.40916 28764 ft 275 kts 240°
2026-05-07 11:51 22.85574 51.39030 28762 ft 276 kts 250°
2026-05-07 11:51 22.85135 51.37000 28762 ft 277 kts 261°
2026-05-07 11:51 22.85070 51.34910 28762 ft 279 kts 271°
2026-05-07 11:52 22.85230 51.32820 28763 ft 279 kts 272°
2026-05-07 11:52 22.85374 51.30719 28763 ft 279 kts 271°
2026-05-07 11:52 22.85511 51.28622 28763 ft 279 kts 271°
2026-05-07 11:52 22.85656 51.26525 28763 ft 279 kts 271°
2026-05-07 11:53 22.85802 51.24422 28765 ft 279 kts 271°
2026-05-07 11:53 22.85947 51.22323 28764 ft 279 kts 271°
2026-05-07 11:53 22.86090 51.20223 28764 ft 279 kts 271°
2026-05-07 11:53 22.86234 51.18124 28765 ft 279 kts 271°
2026-05-07 11:54 22.86375 51.16047 28768 ft 279 kts 271°
2026-05-07 11:54 22.86519 51.13947 28768 ft 279 kts 271°
2026-05-07 11:54 22.86661 51.11847 28768 ft 279 kts 271°
2026-05-07 11:54 22.86803 51.09748 28769 ft 279 kts 271°
2026-05-07 11:55 22.86945 51.07643 28768 ft 279 kts 271°
2026-05-07 11:55 22.87085 51.05543 28771 ft 279 kts 271°
2026-05-07 11:55 22.87227 51.03439 28771 ft 279 kts 271°
2026-05-07 11:55 22.87367 51.01334 28771 ft 279 kts 271°
2026-05-07 11:56 22.87507 50.99234 28771 ft 279 kts 271°
2026-05-07 11:56 22.87645 50.97156 28771 ft 279 kts 271°
2026-05-07 11:56 22.87786 50.95054 28771 ft 279 kts 271°
2026-05-07 11:56 22.87925 50.92952 28771 ft 279 kts 271°
2026-05-07 11:57 22.88066 50.90850 28769 ft 280 kts 271°
2026-05-07 11:57 22.88206 50.88742 28769 ft 280 kts 271°
2026-05-07 11:57 22.88344 50.86644 28777 ft 280 kts 271°
2026-05-07 11:57 22.88483 50.84541 28777 ft 280 kts 271°
2026-05-07 11:58 22.88621 50.82438 28774 ft 280 kts 271°
2026-05-07 11:58 22.88761 50.80329 28775 ft 280 kts 271°
2026-05-07 11:58 22.88899 50.78221 28774 ft 280 kts 271°
2026-05-07 11:58 22.89037 50.76122 28774 ft 280 kts 271°
2026-05-07 11:59 22.89174 50.74019 28774 ft 280 kts 271°
2026-05-07 11:59 22.89308 50.71935 28774 ft 280 kts 271°
2026-05-07 11:59 22.89445 50.69831 28774 ft 280 kts 271°
2026-05-07 11:59 22.89581 50.67723 28775 ft 280 kts 271°
2026-05-07 12:00 22.89719 50.65618 28774 ft 280 kts 271°
2026-05-07 12:00 22.89810 50.64195 28774 ft 280 kts 271°
2026-05-07 12:00 22.89944 50.62119 28774 ft 280 kts 271°
2026-05-07 12:00 22.90079 50.60015 28783 ft 280 kts 271°
2026-05-07 12:01 22.90215 50.57907 28784 ft 280 kts 271°
2026-05-07 12:01 22.90350 50.55804 28784 ft 279 kts 271°
2026-05-07 12:01 22.90485 50.53696 28784 ft 279 kts 271°
2026-05-07 12:01 22.90620 50.51594 28784 ft 279 kts 271°
2026-05-07 12:02 22.90754 50.49492 28785 ft 279 kts 271°
2026-05-07 12:02 22.90888 50.47390 28784 ft 279 kts 271°
2026-05-07 12:02 22.91022 50.45283 28784 ft 279 kts 271°
2026-05-07 12:02 22.91154 50.43182 28784 ft 279 kts 271°
2026-05-07 12:03 22.91288 50.41081 28781 ft 279 kts 270°
2026-05-07 12:03 22.91419 50.39003 28781 ft 279 kts 270°
2026-05-07 12:03 22.91549 50.36902 28781 ft 279 kts 270°
2026-05-07 12:03 22.91682 50.34796 28781 ft 279 kts 270°
2026-05-07 12:04 22.91813 50.32695 28784 ft 279 kts 270°
2026-05-07 12:04 22.91944 50.30598 28784 ft 279 kts 270°
2026-05-07 12:04 22.92075 50.28492 28784 ft 279 kts 270°
2026-05-07 12:04 22.92206 50.26385 28784 ft 279 kts 270°
2026-05-07 12:05 22.92337 50.24279 28784 ft 279 kts 270°
2026-05-07 12:05 22.92469 50.22177 28787 ft 279 kts 270°
2026-05-07 12:05 22.92599 50.20070 28787 ft 279 kts 270°
2026-05-07 12:05 22.92729 50.17972 28786 ft 279 kts 270°
2026-05-07 12:06 22.92857 50.15893 28787 ft 279 kts 270°
2026-05-07 12:06 22.92986 50.13790 28787 ft 279 kts 270°
2026-05-07 12:06 22.93116 50.11687 28787 ft 279 kts 270°
2026-05-07 12:06 22.93244 50.09583 28787 ft 279 kts 270°
2026-05-07 12:07 22.93372 50.07480 28787 ft 279 kts 270°
2026-05-07 12:07 22.93500 50.05377 28784 ft 279 kts 270°
2026-05-07 12:07 22.93627 50.03274 28787 ft 279 kts 270°
2026-05-07 12:07 22.93756 50.01166 28787 ft 279 kts 270°
2026-05-07 12:08 22.93882 49.99060 28787 ft 279 kts 270°
2026-05-07 12:08 22.94009 49.96956 28787 ft 279 kts 270°
2026-05-07 12:08 22.94134 49.94876 28787 ft 279 kts 270°
2026-05-07 12:08 22.94260 49.92773 28787 ft 279 kts 270°
2026-05-07 12:09 22.94386 49.90669 28791 ft 279 kts 270°
2026-05-07 12:09 22.94514 49.88562 28786 ft 279 kts 270°
2026-05-07 12:09 22.94638 49.86474 28787 ft 279 kts 270°
2026-05-07 12:09 22.94764 49.84373 28786 ft 279 kts 270°
2026-05-07 12:10 22.96641 49.52429 28793 ft 278 kts 270°
2026-05-07 12:10 22.98549 49.19027 28796 ft 276 kts 270°
2026-05-07 12:10 23.00825 48.85783 28780 ft 274 kts 272°
2026-05-07 12:10 23.03239 48.52966 28806 ft 276 kts 273°
2026-05-07 12:11 23.05793 48.20198 28813 ft 269 kts 268°
2026-05-07 12:11 23.08035 47.92072 28833 ft 274 kts 273°
2026-05-07 12:11 23.08201 47.90044 28833 ft 273 kts 269°
2026-05-07 12:11 23.08306 47.87985 28836 ft 273 kts 269°
2026-05-07 12:12 23.12030 47.72521 28827 ft 305 kts 307°
2026-05-07 12:12 23.13772 47.71160 28831 ft 315 kts 326°
2026-05-07 12:12 23.15879 47.70412 28835 ft 321 kts 341°
2026-05-07 12:13 23.20204 47.69299 28838 ft 315 kts 335°
2026-05-07 12:13 23.22163 47.68385 28847 ft 307 kts 324°
2026-05-07 12:13 23.23933 47.67133 28847 ft 302 kts 317°
2026-05-07 12:14 23.27414 47.64562 28848 ft 304 kts 322°
2026-05-07 12:14 23.31033 47.62196 28853 ft 302 kts 320°
2026-05-07 12:15 23.34589 47.59758 28858 ft 302 kts 321°
2026-05-07 12:15 23.38140 47.57360 28861 ft 302 kts 320°
2026-05-07 12:16 23.41702 47.54942 28878 ft 302 kts 320°
2026-05-07 12:16 23.45261 47.52507 28877 ft 300 kts 318°
2026-05-07 12:16 23.46810 47.51044 28871 ft 292 kts 306°
2026-05-07 12:17 23.48060 47.49340 28873 ft 286 kts 298°
2026-05-07 12:17 23.49236 47.47584 28854 ft 288 kts 299°
2026-05-07 12:17 23.50453 47.45801 28551 ft 296 kts 300°
2026-05-07 12:17 23.51687 47.43988 28174 ft 297 kts 300°
2026-05-07 12:18 23.52912 47.42184 27787 ft 295 kts 300°
2026-05-07 12:18 23.54112 47.40409 27404 ft 294 kts 300°
2026-05-07 12:18 23.55327 47.38610 27024 ft 296 kts 301°
2026-05-07 12:18 23.56559 47.36788 26643 ft 299 kts 301°
2026-05-07 12:19 23.57798 47.34958 26256 ft 302 kts 301°
2026-05-07 12:19 23.59049 47.33109 25856 ft 303 kts 302°
2026-05-07 12:19 23.60297 47.31263 25461 ft 302 kts 302°
2026-05-07 12:19 23.61543 47.29418 25073 ft 302 kts 302°
2026-05-07 12:20 23.62786 47.27576 24680 ft 302 kts 303°
2026-05-07 12:20 23.64036 47.25724 24285 ft 304 kts 303°
2026-05-07 12:20 23.67863 47.20018 23026 ft 308 kts 303°
2026-05-07 12:20 23.88843 46.88879 16356 ft 320 kts 303°
2026-05-07 12:21 24.05215 46.78234 13959 ft 301 kts 343°
2026-05-07 12:21 24.07275 46.77698 13614 ft 308 kts 345°
2026-05-07 12:21 24.16737 46.72599 11850 ft 307 kts 325°
2026-05-07 12:21 24.22178 46.68920 10829 ft 306 kts 333°
2026-05-07 12:22 24.24070 46.67943 10497 ft 305 kts 332°
2026-05-07 12:22 24.25935 46.66853 10180 ft 301 kts 329°
2026-05-07 12:22 24.27763 46.65719 9898 ft 302 kts 327°
2026-05-07 12:22 24.29601 46.64585 9558 ft 304 kts 328°
2026-05-07 12:23 24.31456 46.63482 9344 ft 299 kts 329°
2026-05-07 12:23 24.33245 46.62430 9383 ft 287 kts 329°
2026-05-07 12:23 24.34982 46.61391 9381 ft 279 kts 328°
2026-05-07 12:23 24.40872 46.57871 9391 ft 252 kts 328°
2026-05-07 12:24 24.65557 46.42993 9403 ft 253 kts 328°
2026-05-07 12:24 24.77672 46.35382 9406 ft 254 kts 326°
2026-05-07 12:24 24.79207 46.34430 9408 ft 252 kts 327°
2026-05-07 12:24 24.80784 46.33624 9391 ft 255 kts 345°
2026-05-07 12:25 24.82497 46.33902 9391 ft 257 kts 28°
2026-05-07 12:25 24.83664 46.35315 9396 ft 248 kts 68°
2026-05-07 12:25 24.88171 46.56218 9378 ft 255 kts 40°
2026-05-07 12:25 24.99671 46.54081 9377 ft 250 kts 325°
2026-05-07 12:26 25.02740 46.50679 9386 ft 244 kts 297°
2026-05-07 12:26 25.03714 46.49144 9389 ft 244 kts 304°
2026-05-07 12:26 25.04893 46.47784 9378 ft 253 kts 315°
2026-05-07 12:26 25.06378 46.46673 9390 ft 254 kts 328°
2026-05-07 12:27 25.07937 46.45810 9418 ft 249 kts 330°
2026-05-07 12:27 25.09454 46.44905 9355 ft 255 kts 327°
2026-05-07 12:27 25.19005 46.38765 8068 ft 245 kts 327°
2026-05-07 12:27 25.39639 46.25911 5954 ft 242 kts 347°
2026-05-07 12:28 25.41289 46.26236 5955 ft 245 kts 32°
2026-05-07 12:28 25.44815 46.36167 5951 ft 235 kts 103°
2026-05-07 12:28 25.35679 46.44140 5972 ft 214 kts 172°
2026-05-07 12:28 25.27351 46.49773 5972 ft 222 kts 121°
2026-05-07 12:29 25.26292 46.51333 5971 ft 223 kts 142°
2026-05-07 12:29 25.25130 46.52460 5974 ft 224 kts 139°
2026-05-07 12:29 25.23929 46.53560 5971 ft 225 kts 147°
2026-05-07 12:29 25.22591 46.54449 5974 ft 221 kts 153°
2026-05-07 12:30 25.21249 46.55244 5974 ft 219 kts 153°
2026-05-07 12:30 25.19901 46.56090 5972 ft 225 kts 151°
2026-05-07 12:30 25.18585 46.56935 5971 ft 218 kts 152°
2026-05-07 12:30 25.17254 46.57781 5972 ft 224 kts 151°
2026-05-07 12:31 25.15878 46.58607 5906 ft 225 kts 152°
2026-05-07 12:31 25.14514 46.59434 5679 ft 221 kts 150°
2026-05-07 12:31 25.13190 46.60297 5408 ft 222 kts 149°
2026-05-07 12:31 25.11917 46.61127 5145 ft 196 kts 148°
2026-05-07 12:32 25.10888 46.61777 4931 ft 140 kts 148°
2026-05-07 12:32 25.10169 46.62240 4760 ft 104 kts 146°
2026-05-07 12:32 25.09597 46.62597 4640 ft 85 kts 145°
2026-05-07 12:32 25.09130 46.62899 4518 ft 70 kts 145°